Location: Bothwell
(42.3833°S, 147.0000°E)
Time: 06:12:23
(UTC+11:00)

AO-27 - Visible Passes

Search period start: 30 January 2023 00:00
Search period end: 09 February 2023 00:00
Orbit: 784 x 798 km, 98.9° (Epoch: 28 January)

Date Brightness Start Highest point End Pass type
(mag) Time Alt. Az. Time Alt. Az. Time Alt. Az.
30 Jan 7.8 21:51:14 10° SSE 21:56:34 81° WSW 22:01:49 10° NNW visible
30 Jan 10.7 23:33:15 10° SW 23:35:09 12° WSW 23:37:02 10° WSW visible
31 Jan 7.8 21:22:02 10° SSE 21:27:16 56° E 21:32:26 10° N visible
31 Jan 10.2 23:02:26 10° SSW 23:06:18 21° WSW 23:10:08 10° WNW visible
01 Feb 9.3 22:32:30 10° S 22:37:19 36° WSW 22:42:04 10° NW visible
02 Feb 8.2 22:02:56 10° S 22:08:12 64° WSW 22:13:24 10° NNW visible
03 Feb 7.7 21:33:38 10° SSE 21:38:58 71° ENE 21:44:12 10° N visible
03 Feb 10.4 23:14:31 10° SSW 23:17:49 17° WSW 23:21:06 10° W visible
04 Feb 8.2 21:04:39 10° SSE 21:09:35 38° E 21:14:27 10° NNE visible
04 Feb 9.6 22:44:22 10° S 22:48:53 29° WSW 22:53:20 10° WNW visible
05 Feb 8.6 22:14:41 10° S 22:19:49 51° WSW 22:24:53 10° NW visible
06 Feb 7.7 21:45:17 10° SSE 21:50:37 88° ENE 21:55:53 10° NNW visible
06 Feb 10.5 23:26:46 10° SSW 23:29:18 14° WSW 23:31:50 10° W visible
07 Feb 7.9 21:16:09 10° SSE 21:21:18 48° E 21:26:21 10° N visible
07 Feb 10.0 22:56:17 10° SSW 23:00:25 24° WSW 23:04:31 10° WNW visible
08 Feb 9.0 22:26:28 10° S 22:31:24 41° WSW 22:36:17 10° NW visible
